Other Surface Observations
Issued by NWS

Home | Current Version | Previous Version | Text Only | Print | Product List | Glossary On
Versions: 1 2 3 4 5 6 7 8 9 10 11 12 13 14 15 16 17 18 19 20 21 22 23 24 25 26 27 28 29 30 31 32 33 34 35 36 37 38 39 40 41 42 43 44 45 46 47 48 49 50
000
SXUS52 KTAE 211418
OSOTAE
OSOTAE
North Florida/South Alabama/Southwest Georgia Weather Roundup
National Weather Service Tallahassee Florida
1000 AM EDT TUE OCT 21 2014

Note: "fair" indicates few or no clouds below 12,000 feet with no
significant weather and/or obstructions to visibility.

!FLZ017-115-028-034-025-211500
...North Florida...

CITY           SKY/WX    TMP DP  RH WIND       PRES   REMARKS
TALLAHASSEE    MOSUNNY   69  58  67 N3        30.02R
APALACHICOLA   SUNNY     72  61  68 NE7       30.01R
PERRY          SUNNY     66  61  82 NE5       30.02R
CROSS CITY       N/A     69  64  84 NE8       30.00R
JACKSONVILLE   MOSUNNY   70  67  90 N5        29.99S
$$

!FLZ112-006-005-002-011-211500
...Florida Panhandle...

CITY           SKY/WX    TMP DP  RH WIND       PRES   REMARKS
MARIANNA       SUNNY     64  59  83 N5        30.03R
BONIFAY        NOT AVBL
PANAMA CITY NW FAIR      66  55  67 N6        30.02R
TYNDALL AFB    SUNNY     67  58  73 NE8       30.02R
TYND DRONE APT NOT AVBL
DE FUNIAK SPR  FAIR      62  53  73 N6        30.05S
EGLIN AFB      MOSUNNY   65  52  61 N7        30.04R
DESTIN         SUNNY     68  55  63 N6        30.04R
HURLBURT       SUNNY     65  50  58 N8        30.03R
CRESTVIEW      SUNNY     64  55  72 NE3       30.06R
PENSACOLA      SUNNY     65  52  62 N6        30.05R
$$

!ALZ063-066-211500
...South Alabama...

CITY           SKY/WX    TMP DP  RH WIND       PRES   REMARKS
DOTHAN         SUNNY     63  54  72 N6        30.08R
OZARK CAIRNS   SUNNY     63  54  72 VRB2      30.05R
FT RUCKER HELI SUNNY     61  55  81 VRB3      30.04R
RUCKER HELI 3  FAIR      64  56  76 N5        30.08R
RUCKER HELI 2  FAIR      63  55  75 N5        30.05R
FLORALA APT    SUNNY     63  52  67 N3        30.07R
ANDALUSIA      SUNNY     68  53  58 N5        30.06R
TROY           SUNNY     59  55  87 CALM      30.07R
EUFALA         FAIR      63  53  70 N3        30.04R
MOBILE         MOSUNNY   63  53  70 NE7       30.07R
$$

!GAZ120>161-211500
...Southwest and South Central Georgia...

CITY           SKY/WX    TMP DP  RH WIND       PRES   REMARKS
THOMASVILLE    FAIR      68  59  73 N5        30.03S
BAINBRIDGE     SUNNY     68  59  73 CALM      30.04R
MOODY AFB      SUNNY     70  58  64 N7        30.01R
VALDOSTA       SUNNY     70  55  59 NE5       30.01R
MOULTRIE       SUNNY     68  59  73 CALM      30.03S
BLAKELY        SUNNY     64  59  82 CALM        N/A
ALBANY         SUNNY     66  55  67 N5        30.05R
TIFTON         FAIR      66  55  67 NE3       30.02R
FITZGERALD     FAIR      69  53  56 N7        30.05R
CORDELE        FAIR      63  56  76 CALM      30.04S
AMERICUS       FAIR      63  54  72 N5        30.05S
HOMERVILLE     FAIR      70  61  73 CALM      30.02R
$$

!GMZ750-755-770-775-211500
...Coastal and Buoy Obs...

STATION/POSITION TIME  TEMP    WIND        PRES    VSBY  WAVE
                       AIR SEA DIR/SP/G                  HT/PER
                 (UTC) (F)     (DEG/KT/KT) (MB)    (MI)  (FT/S)
KEATON BEACH     1400   69      40/  5/  8 1016.0R
CEDAR KEY        1359   70      30/  5/  7 1016.0R
C TOWER          1400   72      30/ 10/ 12 1015.7R
APALACHICOLA BUO 1400   78 82  350/  6/  8 1015.2R         1/ 3
PANAMA CITY BUOY 1309   75 81   20/ 12/ 14 1015.8R         2/ 4
MOBILE BUOY      1325   75 79   40/ 12/ 16 1017.0R         1/ 5
ORANGE BCH AL BU 1400   70 78   30/ 14/ 16 1016.7R         2/ 3
$$



USA.gov is the U.S. government's official web portal to all federal, state and local government web resources and services.